Regional Weather Roundup
Issued by NWS

Home | Current Version | Previous Version | Graphics & Text | Print | Product List | Glossary On
Versions: 1 2 3 4 5 6 7 8 9 10 11 12 13 14 15 16 17 18 19 20 21 22 23 24 25 26 27 28 29 30 31 32 33 34 35 36 37 38 39 40 41 42 43 44 45 46 47 48 49 50
683
ASUS45 KCYS 052210
RWRWY

WYOMING REGIONAL WEATHER ROUNDUP
NATIONAL WEATHER SERVICE CHEYENNE WY
400 PM MDT THU MAY 05 2016

NOTE:  "FAIR" INDICATES FEW OR NO CLOUDS BELOW 12,000 FEET
WITH NO SIGNIFICANT WEATHER AND/OR OBSTRUCTIONS TO VISIBILITY.

WYZ001-052300-
YELLOWSTONE NATIONAL PARK

CITY           SKY/WX    TMP DP  RH WIND       PRES   REMARKS
LK YELLOWSTONE   N/A     60  24  25 CALM      30.14F
W YELLOWSTONE  NOT AVBL

$$
WYZ002>013-054>058-071-098>099-052300-
NORTHERN WYOMING

CITY           SKY/WX    TMP DP  RH WIND       PRES   REMARKS
JACKSON        SUNNY     72  28  20 W6        30.03F
CODY           FAIR      77  30  18 S7        29.95F
GREYBULL       FAIR      83  24  11 S9        29.89F
WORLAND        FAIR      81  30  15 E5        29.91F
SHERIDAN       FAIR      82  35  18 VRB3      29.91F
BUFFALO        FAIR      81  33  17 NE9       29.97F
GILLETTE       FAIR      79  39  23 SW6       29.94F
HULETT         FAIR      81  30  16 W6        29.94F
NEWCASTLE      FAIR      82  27  13 SW8       29.94F

$$
WYZ014>020-022>026-101>103-052300-
CENTRAL WYOMING

CITY           SKY/WX    TMP DP  RH WIND       PRES   REMARKS
BIG PINEY      FAIR      72  23  16 SW7G17    30.08F
PINEDALE       FAIR      70  21  16 S6        30.09F
DUBOIS         FAIR      68  23  18 W23       30.08F
LANDER         FAIR      76  35  22 VRB5      29.97F
RIVERTON       FAIR      77  36  22 E6        30.00F
CASPER         FAIR      78  28  16 NW15      30.00F
DOUGLAS        FAIR      80  31  16 NW10      30.00F

$$
WYZ021-027>030-104>119-052300-
SOUTHERN WYOMING

CITY           SKY/WX    TMP DP  RH WIND       PRES   REMARKS
EVANSTON       FAIR      72  23  16 S18G29    30.04F
KEMMERER         N/A     72  19  14 E14G22    30.07F
FORT BRIDGER   CLEAR     75  21  13 S14G21    30.08F
ROCK SPRINGS   FAIR      72  21  14 S17       30.07F
DIXON          FAIR      75  26  16 SW6       30.11F
RAWLINS        PTSUNNY   73  25  16 NW7       30.11F
SARATOGA       MOCLDY    72  25  17 NW9       30.14F
LARAMIE        FAIR      70  27  20 NW10      30.13F
CHEYENNE       CLOUDY    73  30  20 VRB5      30.08F
TORRINGTON     FAIR      82  30  15 SW8G18    29.95F
PINE BLUFFS    FAIR      77  27  15 CALM      30.04F

$$




USA.gov is the U.S. government's official web portal to all federal, state and local government web resources and services.